• In Uzbekistan
  • List of Countries
  • For 7 days
  • Water Temperature
  • Satellite Maps
  • Weather Map
  • Weather Widgets
  • user-avatar
    Login

    Hourly Weather Etchmiadzin

    Today, 23 September, Saturday

    Time Temperature Precipitation Wind Pressure Humidity
    00:00 +23°C° 0.2 mm 2 mps 686 mmHg 59%
    01:00 +21°C° 0.1 mm 2 mps 686 mmHg 61%
    02:00 +21°C° 0.1 mm 2 mps 686 mmHg 63%
    03:00 +20°C° 0.1 mm 2 mps 686 mmHg 64%
    04:00 +20°C° 0 mm 2 mps 686 mmHg 65%
    05:00 +20°C° 0 mm 1 mps 686 mmHg 66%
    06:00 +20°C° 0 mm 1 mps 686 mmHg 67%
    07:00 +22°C° 0 mm 1 mps 686 mmHg 58%
    08:00 +25°C° 0 mm 1 mps 687 mmHg 48%
    09:00 +27°C° 0 mm 1 mps 687 mmHg 39%
    10:00 +28°C° 0 mm 2 mps 687 mmHg 35%
    11:00 +30°C° 0 mm 2 mps 687 mmHg 31%
    12:00 +31°C° 0 mm 2 mps 687 mmHg 27%
    13:00 +31°C° 0 mm 3 mps 687 mmHg 25%
    14:00 +31°C° 0 mm 3 mps 687 mmHg 24%
    15:00 +33°C° 0 mm 3 mps 686 mmHg 23%
    16:00 +29°C° 0.2 mm 2 mps 686 mmHg 28%
    17:00 +27°C° 0.2 mm 2 mps 686 mmHg 33%
    18:00 +25°C° 0.2 mm 1 mps 686 mmHg 38%
    19:00 +24°C° 0.2 mm 1 mps 686 mmHg 42%
    20:00 +24°C° 0.2 mm 2 mps 686 mmHg 47%
    21:00 +23°C° 0.2 mm 2 mps 687 mmHg 52%
    22:00 +23°C° 0 mm 2 mps 687 mmHg 56%
    23:00 +21°C° 0 mm 2 mps 687 mmHg 59%

    Tomorrow, 24 September, Sunday

    Time Temperature Precipitation Wind Pressure Humidity
    00:00 +21°C° 0 mm 2 mps 687 mmHg 63%
    01:00 +20°C° 0 mm 2 mps 687 mmHg 65%
    02:00 +20°C° 0 mm 2 mps 687 mmHg 67%
    03:00 +19°C° 0 mm 2 mps 687 mmHg 69%
    04:00 +19°C° 0 mm 2 mps 687 mmHg 71%
    05:00 +18°C° 0 mm 2 mps 688 mmHg 72%
    06:00 +18°C° 0 mm 2 mps 688 mmHg 73%
    07:00 +20°C° 0 mm 2 mps 688 mmHg 64%
    08:00 +23°C° 0 mm 2 mps 688 mmHg 54%
    09:00 +25°C° 0 mm 2 mps 689 mmHg 45%
    10:00 +27°C° 0.1 mm 2 mps 689 mmHg 40%
    11:00 +28°C° 0.1 mm 2 mps 689 mmHg 35%
    12:00 +29°C° 0.1 mm 2 mps 688 mmHg 31%
    13:00 +29°C° 0.2 mm 2 mps 688 mmHg 30%
    14:00 +30°C° 0.2 mm 2 mps 688 mmHg 29%
    15:00 +30°C° 0.2 mm 2 mps 688 mmHg 28%
    16:00 +28°C° 0.3 mm 2 mps 687 mmHg 33%
    17:00 +26°C° 0.3 mm 1 mps 687 mmHg 39%
    18:00 +24°C° 0.3 mm 1 mps 687 mmHg 44%
    19:00 +23°C° 0.1 mm 2 mps 687 mmHg 48%
    20:00 +21°C° 0.1 mm 2 mps 688 mmHg 53%
    21:00 +21°C° 0.1 mm 2 mps 688 mmHg 57%
    22:00 +20°C° 0 mm 2 mps 688 mmHg 59%
    23:00 +20°C° 0 mm 2 mps 688 mmHg 61%

    Day after tomorrow, 25 September, Monday

    Time Temperature Precipitation Wind Pressure Humidity
    00:00 +19°C° 0 mm 2 mps 688 mmHg 63%
    01:00 +19°C° 0 mm 2 mps 688 mmHg 65%
    02:00 +18°C° 0 mm 2 mps 688 mmHg 66%
    03:00 +18°C° 0 mm 2 mps 688 mmHg 68%
    04:00 +17°C° 0 mm 2 mps 688 mmHg 70%
    05:00 +17°C° 0 mm 2 mps 688 mmHg 71%
    06:00 +16°C° 0 mm 1 mps 688 mmHg 73%
    07:00 +20°C° 0 mm 1 mps 688 mmHg 64%
    08:00 +22°C° 0 mm 1 mps 689 mmHg 54%
    09:00 +24°C° 0 mm 1 mps 689 mmHg 45%
    10:00 +25°C° 0 mm 1 mps 689 mmHg 40%
    11:00 +27°C° 0 mm 2 mps 689 mmHg 35%
    12:00 +28°C° 0 mm 2 mps 689 mmHg 30%
    13:00 +28°C° 0 mm 2 mps 688 mmHg 29%
    14:00 +29°C° 0 mm 2 mps 688 mmHg 27%
    15:00 +29°C° 0 mm 2 mps 688 mmHg 25%
    16:00 +27°C° 0 mm 2 mps 688 mmHg 29%
    17:00 +25°C° 0 mm 1 mps 687 mmHg 32%
    18:00 +23°C° 0 mm 1 mps 687 mmHg 36%
    19:00 +22°C° 0 mm 1 mps 688 mmHg 42%
    20:00 +21°C° 0 mm 2 mps 688 mmHg 47%
    21:00 +20°C° 0 mm 2 mps 688 mmHg 53%
    22:00 +20°C° 0 mm 2 mps 688 mmHg 56%
    23:00 +19°C° 0 mm 2 mps 688 mmHg 59%

    26 September, Tuesday

    Time Temperature Precipitation Wind Pressure Humidity
    00:00 +18°C° 0 mm 2 mps 688 mmHg 63%
    01:00 +18°C° 0 mm 2 mps 688 mmHg 64%
    02:00 +19°C° 0 mm 1 mps 688 mmHg 65%
    03:00 +18°C° 0 mm 1 mps 688 mmHg 67%
    04:00 +18°C° 0 mm 1 mps 688 mmHg 67%
    05:00 +16°C° 0 mm 1 mps 688 mmHg 68%
    06:00 +16°C° 0 mm 1 mps 687 mmHg 69%
    07:00 +20°C° 0 mm 1 mps 688 mmHg 58%
    08:00 +22°C° 0 mm 1 mps 688 mmHg 47%
    09:00 +24°C° 0 mm 1 mps 689 mmHg 36%
    10:00 +26°C° 0 mm 2 mps 688 mmHg 31%
    11:00 +27°C° 0 mm 2 mps 688 mmHg 27%
    12:00 +29°C° 0 mm 2 mps 688 mmHg 22%
    13:00 +29°C° 0 mm 2 mps 688 mmHg 22%
    14:00 +29°C° 0 mm 2 mps 687 mmHg 21%
    15:00 +29°C° 0 mm 2 mps 687 mmHg 20%
    16:00 +28°C° 0 mm 2 mps 687 mmHg 25%
    17:00 +26°C° 0 mm 2 mps 687 mmHg 29%
    18:00 +24°C° 0 mm 1 mps 687 mmHg 33%
    19:00 +23°C° 0.1 mm 2 mps 687 mmHg 39%
    20:00 +23°C° 0.1 mm 2 mps 687 mmHg 45%
    21:00 +21°C° 0.1 mm 2 mps 688 mmHg 50%
    22:00 +20°C° 0 mm 2 mps 688 mmHg 54%
    23:00 +20°C° 0 mm 2 mps 687 mmHg 57%

    27 September, Wednesday

    Time Temperature Precipitation Wind Pressure Humidity
    00:00 +20°C° 0 mm 2 mps 687 mmHg 61%
    01:00 +19°C° 0.1 mm 2 mps 687 mmHg 63%
    02:00 +19°C° 0.1 mm 2 mps 687 mmHg 65%
    03:00 +18°C° 0.1 mm 2 mps 687 mmHg 67%
    04:00 +18°C° 0.1 mm 2 mps 687 mmHg 68%
    05:00 +17°C° 0.1 mm 2 mps 687 mmHg 70%
    06:00 +18°C° 0.1 mm 1 mps 687 mmHg 71%
    07:00 +19°C° 0.1 mm 2 mps 687 mmHg 61%
    08:00 +21°C° 0.1 mm 2 mps 688 mmHg 52%
    09:00 +25°C° 0.1 mm 2 mps 688 mmHg 42%
    10:00 +26°C° 0.1 mm 2 mps 688 mmHg 38%
    11:00 +27°C° 0.1 mm 2 mps 688 mmHg 34%
    12:00 +29°C° 0.1 mm 3 mps 687 mmHg 30%
    13:00 +29°C° 0.1 mm 3 mps 687 mmHg 29%
    14:00 +29°C° 0.1 mm 3 mps 687 mmHg 28%
    15:00 +29°C° 0.1 mm 3 mps 686 mmHg 27%
    16:00 +28°C° 0.1 mm 3 mps 686 mmHg 33%
    17:00 +26°C° 0.1 mm 3 mps 686 mmHg 38%
    18:00 +24°C° 0.1 mm 3 mps 686 mmHg 44%
    19:00 +22°C° 0.1 mm 3 mps 686 mmHg 49%
    20:00 +21°C° 0.1 mm 3 mps 686 mmHg 54%
    21:00 +20°C° 0.1 mm 3 mps 687 mmHg 59%
    22:00 +20°C° 0 mm 3 mps 687 mmHg 62%
    23:00 +19°C° 0 mm 3 mps 686 mmHg 64%

    28 September, Thursday

    Time Temperature Precipitation Wind Pressure Humidity
    00:00 +18°C° 0 mm 2 mps 686 mmHg 66%
    01:00 +18°C° 0 mm 2 mps 686 mmHg 68%
    02:00 +17°C° 0 mm 2 mps 686 mmHg 69%
    03:00 +17°C° 0 mm 2 mps 686 mmHg 70%
    04:00 +17°C° 0 mm 2 mps 686 mmHg 71%
    05:00 +16°C° 0 mm 2 mps 686 mmHg 71%
    06:00 +16°C° 0 mm 2 mps 686 mmHg 72%
    07:00 +19°C° 0 mm 1 mps 686 mmHg 63%
    08:00 +21°C° 0 mm 1 mps 687 mmHg 54%
    09:00 +23°C° 0 mm 1 mps 687 mmHg 45%
    10:00 +24°C° 0 mm 1 mps 687 mmHg 42%
    11:00 +25°C° 0 mm 1 mps 687 mmHg 38%
    12:00 +27°C° 0 mm 2 mps 687 mmHg 35%
    13:00 +27°C° 0.1 mm 2 mps 687 mmHg 35%
    14:00 +27°C° 0.1 mm 2 mps 687 mmHg 34%
    15:00 +27°C° 0.1 mm 2 mps 686 mmHg 33%
    16:00 +26°C° 0.2 mm 2 mps 686 mmHg 39%
    17:00 +24°C° 0.2 mm 3 mps 686 mmHg 45%
    18:00 +22°C° 0.2 mm 3 mps 686 mmHg 50%
    19:00 +21°C° 0.1 mm 3 mps 687 mmHg 55%
    20:00 +20°C° 0.1 mm 3 mps 687 mmHg 59%
    21:00 +19°C° 0.1 mm 3 mps 687 mmHg 64%
    22:00 +19°C° 0.2 mm 3 mps 688 mmHg 66%
    23:00 +18°C° 0.2 mm 2 mps 688 mmHg 67%
    Show more